Fort Patrick Henry Observed Data For Previous 48 Hours

Caption
Day and Hour Reservoir Elevation (behind dam)* Tailwater Elevation (below dam)* Average Hourly Discharge*
1/15/2018 2 AM EST 1,259.99 1,191.30 280
1/15/2018 3 AM EST 1,260.12 1,192.62 3,433
1/15/2018 4 AM EST 1,260.06 1,192.63 3,411
1/15/2018 5 AM EST 1,259.99 1,192.63 3,421
1/15/2018 6 AM EST 1,260.00 1,192.59 3,393
1/15/2018 7 AM EST 1,259.94 1,192.73 3,531
1/15/2018 8 AM EST 1,259.92 1,192.67 3,472
1/15/2018 9 AM EST 1,259.87 1,192.67 3,465
1/15/2018 10 AM EST 1,260.13 1,186.78 120
1/15/2018 11 AM EST 1,260.02 1,191.33 282
1/15/2018 12 PM EST 1,259.93 1,187.97 2,574
1/15/2018 1 PM EST 1,259.96 1,186.64 0
1/15/2018 2 PM EST 1,259.83 1,191.23 274
1/15/2018 3 PM EST 1,259.78 1,187.97 2,558
1/15/2018 4 PM EST 1,259.71 1,186.64 0
1/15/2018 5 PM EST 1,259.55 1,191.24 278
1/15/2018 6 PM EST 1,259.46 1,187.89 2,547
1/15/2018 7 PM EST 1,259.78 1,186.64 0
1/15/2018 8 PM EST 1,259.98 1,191.22 273
1/15/2018 9 PM EST 1,259.99 1,192.62 3,454
1/15/2018 10 PM EST 1,259.94 1,192.66 3,443
1/15/2018 11 PM EST 1,259.91 1,192.78 3,484
1/16/2018 12 AM EST 1,259.87 1,192.75 3,545
1/16/2018 1 AM EST 1,259.50 1,192.78 3,547
1/16/2018 2 AM EST 1,259.35 1,189.81 422
1/16/2018 3 AM EST 1,259.32 1,187.82 2,544
1/16/2018 4 AM EST 1,259.33 1,186.61 0
1/16/2018 5 AM EST 1,259.22 1,191.25 296
1/16/2018 6 AM EST 1,259.15 1,188.02 2,555
1/16/2018 7 AM EST 1,259.05 1,186.61 0
1/16/2018 8 AM EST 1,258.90 1,191.22 276
1/16/2018 9 AM EST 1,259.11 1,187.93 2,548
1/16/2018 10 AM EST 1,259.43 1,186.60 0
1/16/2018 11 AM EST 1,259.59 1,191.03 244
1/16/2018 12 PM EST 1,259.49 1,188.02 2,582
1/16/2018 1 PM EST 1,259.40 1,186.60 0
1/16/2018 2 PM EST 1,259.32 1,191.25 271
1/16/2018 3 PM EST 1,259.24 1,187.86 2,540
1/16/2018 4 PM EST 1,259.21 1,186.60 0
1/16/2018 5 PM EST 1,259.39 1,191.28 279
1/16/2018 6 PM EST 1,259.44 1,193.75 3,542
1/16/2018 7 PM EST 1,259.07 1,195.59 6,602
1/16/2018 8 PM EST 1,258.77 1,195.65 6,562
1/16/2018 9 PM EST 1,258.49 1,195.57 6,507
1/16/2018 10 PM EST 1,258.51 1,192.31 3,714
1/16/2018 11 PM EST 1,258.59 1,192.17 3,050
1/17/2018 12 AM EST 1,258.67 1,192.26 3,091
1/17/2018 1 AM EST 1,258.76 1,192.28 3,124
1/17/2018 2 AM EST 1,258.78 1,192.34 3,170
1/17/2018 3 AM EST 1,258.80 1,192.30 3,176
1/17/2018 4 AM EST 1,258.80 1,192.30 3,171
1/17/2018 5 AM EST 1,258.84 1,192.31 3,188
1/17/2018 6 AM EST 1,259.16 1,186.74 75
1/17/2018 7 AM EST 1,259.41 1,191.20 278
1/17/2018 8 AM EST 1,259.64 1,187.95 2,545
1/17/2018 9 AM EST 1,259.90 1,186.62 0
1/17/2018 10 AM EST 1,260.16 1,191.27 289
1/17/2018 11 AM EST 1,260.30 1,188.02 2,573
1/17/2018 12 PM EST 1,260.59 1,186.63 0
1/17/2018 1 PM EST 1,260.41 1,191.17 261
1/17/2018 2 PM EST 1,260.29 1,187.94 2,534
1/17/2018 3 PM EST 1,260.33 1,186.61 0
1/17/2018 4 PM EST 1,260.53 1,191.20 271
1/17/2018 5 PM EST 1,260.54 1,193.15 3,435
1/17/2018 6 PM EST 1,260.27 1,195.67 6,648
1/17/2018 7 PM EST 1,259.95 1,195.61 6,597
1/17/2018 8 PM EST 1,259.59 1,195.61 6,557
1/17/2018 9 PM EST 1,259.26 1,195.61 6,571
1/17/2018 10 PM EST 1,259.25 1,192.32 3,287

Elevations are in feet above sea level. Discharges are in cubic feet per second and are reported at the end of the hour.